Location: Mountain View
(37.3861°N, 122.0839°W)
Time: 18:28:22
(UTC-07:00)

Tiangong 2 - Pass Details

Date: 22 August 2018
Orbit: 383 x 394 km, 42.8° (Epoch: 23 September)

Event Time Altitude Azimuth Distance (km) Brightness Sun altitude
Exits shadow 04:30:49 34° 4° (N) 659 2.5 -22.2°
Drops below altitude 10° 04:33:28 10° 58° (ENE) 1,414 5.1 -21.8°
Sets 04:35:40 0° 67° (ENE) 2,272 6.4 -21.4°
